COSMOS 1275 DEB, 42147

Orbit data source: Space-Track

COSMOS 1275 DEB, 42147 is space debris in LEO originally from a launch on Thu, 04 Jun 1981 UTC launched from the Plesetsk Missile And Space Complex (PKMTR). Debris objects in space refer to the collection of defunct objects orbiting the Earth. Examples of debris include non-operational satellites, rocket bodies, and fragments generated from explosions, collisions, or faulty payload assembly.

Loading next visibility...
COSMOS 1275 DEB details
Identifier
42147, 1981-053RK
Orbit
LEO
Last TLE update9 hours ago
Origin
Flag of CISGUKOS (CIS)
ManufacturerUnknown
MissionSpacecraft
Bus & MotorUnknown
MassUnknown
Launch date (UTC)
1981-06-04 (44 years ago)
Launch vehicleUnknown
Launch site
Plesetsk Missile And Space Complex (PKMTR)
Object type
Payload
Rocket body
Debris
Shape & HBRUnknown
Radar Cross SectionSmall (<0.1 m²)

Expand to show TLE details & history

TLE from 9 hours ago
0 COSMOS 1275 DEB
1 42147U 81053RK  24361.18223656  .00005988  00000-0  27753-2 0  9990
2 42147  83.0590 317.9284 0017906 258.7700 101.1469 14.20536228572538
Epoch: 2024-12-26T04:22Z
Definitive object data (Epoch: 2024-12-26T04:22:25.238Z)
Latitude-0.00007°
Longitude157.15793°
Altitude829.022 km
Speed7.437 km/s
True Right ascension21h 11m 42s
True Declination0° 00' 00"
Sunlit
Object was in daylight at TLE epoch
Visualization TLE readout
Latitude22.79021°
Longitude159.79406°
Altitude833.773 km
Speed7.434 km/s
Apparent Right ascension22h 35m 57s
Apparent Declination-6° 51' 55"
Sunlit
Object is in daylight
Visualization observer readout
Local Sidereal Time12:17:36
Azimuth41.373° NE
Elevation-49.863°
Doppler factor1
Orbital elements
Apogee altitude833.512 km
Perigee altitude807.731 km
Semi-major axis7,198.758 km
Eccentricity0.0017906
Inclination83.059°
RAAN317.9284°
Arg. of periapsis258.77°
True anomaly101.34813°
Mean anomaly101.1469°
Eccentric anomaly101.24752°
Mean motion3.5535 °/min
BSTAR0.0027753
Orbital period101.31 mins
Loading maneuver chart data...
Loading historical data...
Loading historical data...
Loading historical data...
Loading historical data...
Loading historical data...
Loading historical data...
Loading historical data...

COSMOS 1275 DEB Visibility forecast

Observer location: undefined°, undefined

Span
Click to sort rows by Start time (UTC) header in descending order
Start Az.
Max El. time (UTC)
Max El. Az.
Max El.
End time (UTC)
End Az.
9 mins2024-12-26 21:23:00.751Z154.699° SSE2024-12-26 21:28:00.751Z87.676° E31.219°2024-12-26 21:32:00.751Z28.456° NE
7 mins2024-12-26 23:07:00.751Z241.332° WSW2024-12-26 23:10:00.751Z284.194° WNW23.772°2024-12-26 23:14:00.751Z337.623° N
6 mins2024-12-27 08:01:00.751Z35.215° NE2024-12-27 08:04:00.751Z73.634° E18.266°2024-12-27 08:07:00.751Z110.427° ESE
9 mins2024-12-27 09:42:00.751Z339.251° N2024-12-27 09:46:00.751Z278.147° WNW37.824°2024-12-27 09:51:00.751Z195.412° SSW
|